When you browse on this site, cookies collect data to enhance your experience and personalize the content and advertising you see.
Visit our Privacy Policy to learn more. By continuing to use the site, you agree to this use of cookies and data.

Meteo pe oră la Pruszków

Astăzi, 5 Iulie, Duminică

Timp Temperatura Precipitaţii Vânt Presiune Umiditate
00:00 +19°C° 0 mm 3 m/s 752 mmHg 74%
01:00 +18°C° 0 mm 3 m/s 752 mmHg 75%
02:00 +18°C° 0 mm 3 m/s 752 mmHg 77%
03:00 +18°C° 0 mm 3 m/s 752 mmHg 79%
04:00 +17°C° 0 mm 3 m/s 752 mmHg 81%
05:00 +19°C° 0 mm 3 m/s 752 mmHg 79%
06:00 +20°C° 0 mm 4 m/s 752 mmHg 76%
07:00 +21°C° 0 mm 4 m/s 752 mmHg 74%
08:00 +23°C° 0 mm 4 m/s 752 mmHg 70%
09:00 +25°C° 0 mm 5 m/s 752 mmHg 65%
10:00 +26°C° 0 mm 5 m/s 752 mmHg 61%
11:00 +27°C° 0 mm 5 m/s 751 mmHg 60%
12:00 +27°C° 0 mm 5 m/s 751 mmHg 59%
13:00 +28°C° 0 mm 5 m/s 751 mmHg 59%
14:00 +27°C° 0.2 mm 5 m/s 750 mmHg 62%
15:00 +27°C° 0.2 mm 5 m/s 750 mmHg 66%
16:00 +27°C° 0.2 mm 4 m/s 750 mmHg 70%
17:00 +26°C° 0.1 mm 4 m/s 750 mmHg 72%
18:00 +26°C° 0.1 mm 3 m/s 750 mmHg 74%
19:00 +25°C° 0.1 mm 3 m/s 750 mmHg 77%
20:00 +24°C° 0 mm 3 m/s 750 mmHg 80%
21:00 +22°C° 0 mm 3 m/s 750 mmHg 83%
22:00 +21°C° 0 mm 3 m/s 750 mmHg 86%
23:00 +21°C° 0 mm 3 m/s 750 mmHg 86%

Mâine, 6 Iulie, Luni

Timp Temperatura Precipitaţii Vânt Presiune Umiditate
00:00 +21°C° 0 mm 3 m/s 750 mmHg 86%
01:00 +21°C° 0 mm 3 m/s 749 mmHg 86%
02:00 +21°C° 0 mm 3 m/s 749 mmHg 86%
03:00 +21°C° 0 mm 3 m/s 749 mmHg 86%
04:00 +21°C° 0 mm 3 m/s 749 mmHg 86%
05:00 +21°C° 0 mm 3 m/s 749 mmHg 85%
06:00 +21°C° 0 mm 3 m/s 749 mmHg 85%
07:00 +21°C° 0 mm 3 m/s 749 mmHg 84%
08:00 +22°C° 0.1 mm 3 m/s 749 mmHg 81%
09:00 +22°C° 0.1 mm 3 m/s 749 mmHg 77%
10:00 +24°C° 0.1 mm 3 m/s 748 mmHg 74%
11:00 +24°C° 0.2 mm 3 m/s 748 mmHg 72%
12:00 +23°C° 0.2 mm 4 m/s 748 mmHg 70%
13:00 +25°C° 0.2 mm 5 m/s 748 mmHg 68%
14:00 +25°C° 0 mm 4 m/s 748 mmHg 67%
15:00 +25°C° 0 mm 4 m/s 748 mmHg 66%
16:00 +25°C° 0 mm 4 m/s 748 mmHg 65%
17:00 +23°C° 0 mm 4 m/s 748 mmHg 65%
18:00 +21°C° 0 mm 4 m/s 749 mmHg 65%
19:00 +20°C° 0 mm 4 m/s 749 mmHg 64%
20:00 +19°C° 0 mm 4 m/s 749 mmHg 66%
21:00 +18°C° 0 mm 3 m/s 749 mmHg 67%
22:00 +17°C° 0 mm 3 m/s 750 mmHg 68%
23:00 +16°C° 0 mm 3 m/s 750 mmHg 68%

Poimâine, 7 Iulie, Marţi

Timp Temperatura Precipitaţii Vânt Presiune Umiditate
00:00 +16°C° 0 mm 3 m/s 751 mmHg 67%
01:00 +14°C° 0 mm 3 m/s 751 mmHg 66%
02:00 +14°C° 0 mm 3 m/s 751 mmHg 68%
03:00 +14°C° 0 mm 3 m/s 751 mmHg 69%
04:00 +14°C° 0 mm 3 m/s 751 mmHg 70%
05:00 +14°C° 0 mm 4 m/s 752 mmHg 70%
06:00 +15°C° 0 mm 4 m/s 752 mmHg 70%
07:00 +16°C° 0 mm 5 m/s 752 mmHg 70%
08:00 +16°C° 0 mm 5 m/s 752 mmHg 67%
09:00 +17°C° 0 mm 5 m/s 752 mmHg 64%
10:00 +19°C° 0 mm 4 m/s 753 mmHg 61%
11:00 +19°C° 0.1 mm 5 m/s 753 mmHg 59%
12:00 +20°C° 0.1 mm 5 m/s 752 mmHg 57%
13:00 +21°C° 0.1 mm 5 m/s 752 mmHg 55%
14:00 +20°C° 0.1 mm 5 m/s 752 mmHg 56%
15:00 +20°C° 0.1 mm 5 m/s 753 mmHg 56%
16:00 +20°C° 0.1 mm 5 m/s 753 mmHg 57%
17:00 +19°C° 0 mm 5 m/s 753 mmHg 61%
18:00 +18°C° 0 mm 4 m/s 753 mmHg 65%
19:00 +16°C° 0 mm 3 m/s 753 mmHg 69%
20:00 +14°C° 0 mm 3 m/s 754 mmHg 71%
21:00 +14°C° 0 mm 2 m/s 754 mmHg 73%
22:00 +13°C° 0 mm 2 m/s 754 mmHg 75%
23:00 +13°C° 0 mm 2 m/s 754 mmHg 76%

8 Iulie, Miercuri

Timp Temperatura Precipitaţii Vânt Presiune Umiditate
00:00 +12°C° 0 mm 2 m/s 754 mmHg 78%
01:00 +12°C° 0 mm 2 m/s 754 mmHg 79%
02:00 +12°C° 0 mm 2 m/s 754 mmHg 80%
03:00 +10°C° 0 mm 2 m/s 754 mmHg 81%
04:00 +10°C° 0 mm 2 m/s 754 mmHg 81%
05:00 +13°C° 0 mm 2 m/s 754 mmHg 76%
06:00 +15°C° 0 mm 2 m/s 754 mmHg 72%
07:00 +16°C° 0 mm 3 m/s 754 mmHg 67%
08:00 +17°C° 0 mm 3 m/s 754 mmHg 63%
09:00 +19°C° 0 mm 4 m/s 754 mmHg 59%
10:00 +20°C° 0 mm 4 m/s 754 mmHg 55%
11:00 +20°C° 0 mm 4 m/s 754 mmHg 57%
12:00 +19°C° 0 mm 4 m/s 754 mmHg 59%
13:00 +19°C° 0 mm 5 m/s 753 mmHg 61%
14:00 +20°C° 0 mm 4 m/s 753 mmHg 60%
15:00 +20°C° 0 mm 4 m/s 753 mmHg 59%
16:00 +21°C° 0 mm 4 m/s 753 mmHg 59%
17:00 +19°C° 0.4 mm 4 m/s 753 mmHg 69%
18:00 +17°C° 0.4 mm 3 m/s 753 mmHg 79%
19:00 +14°C° 0.4 mm 3 m/s 754 mmHg 90%
20:00 +14°C° 0.1 mm 3 m/s 754 mmHg 91%
21:00 +15°C° 0.1 mm 2 m/s 754 mmHg 91%
22:00 +14°C° 0.1 mm 2 m/s 754 mmHg 92%
23:00 +14°C° 0 mm 2 m/s 754 mmHg 93%

9 Iulie, Joi

Timp Temperatura Precipitaţii Vânt Presiune Umiditate
00:00 +13°C° 0 mm 2 m/s 755 mmHg 94%
01:00 +13°C° 0 mm 2 m/s 755 mmHg 94%
02:00 +13°C° 0 mm 2 m/s 755 mmHg 95%
03:00 +12°C° 0 mm 2 m/s 755 mmHg 95%
04:00 +12°C° 0 mm 2 m/s 755 mmHg 95%
05:00 +13°C° 0 mm 2 m/s 755 mmHg 91%
06:00 +15°C° 0 mm 2 m/s 756 mmHg 86%
07:00 +16°C° 0 mm 2 m/s 756 mmHg 82%
08:00 +17°C° 0 mm 2 m/s 756 mmHg 75%
09:00 +19°C° 0 mm 2 m/s 756 mmHg 69%
10:00 +20°C° 0 mm 2 m/s 756 mmHg 63%
11:00 +21°C° 0 mm 2 m/s 756 mmHg 60%
12:00 +21°C° 0 mm 2 m/s 756 mmHg 57%
13:00 +23°C° 0 mm 2 m/s 755 mmHg 54%
14:00 +23°C° 0 mm 2 m/s 755 mmHg 54%
15:00 +24°C° 0 mm 2 m/s 755 mmHg 53%
16:00 +24°C° 0 mm 2 m/s 755 mmHg 53%
17:00 +23°C° 0.1 mm 1 m/s 754 mmHg 59%
18:00 +22°C° 0.1 mm 1 m/s 754 mmHg 65%
19:00 +21°C° 0.1 mm 1 m/s 754 mmHg 71%
20:00 +20°C° 0 mm 1 m/s 754 mmHg 73%
21:00 +19°C° 0 mm 1 m/s 754 mmHg 75%
22:00 +17°C° 0 mm 2 m/s 754 mmHg 78%
23:00 +17°C° 0 mm 2 m/s 754 mmHg 79%

10 Iulie, Vineri

Timp Temperatura Precipitaţii Vânt Presiune Umiditate
00:00 +16°C° 0 mm 2 m/s 754 mmHg 81%
01:00 +16°C° 0 mm 2 m/s 754 mmHg 83%
02:00 +16°C° 0 mm 2 m/s 754 mmHg 83%
03:00 +16°C° 0 mm 2 m/s 754 mmHg 84%
04:00 +16°C° 0 mm 2 m/s 753 mmHg 84%
05:00 +17°C° 0 mm 3 m/s 753 mmHg 81%
06:00 +18°C° 0 mm 3 m/s 753 mmHg 78%
07:00 +20°C° 0 mm 3 m/s 753 mmHg 75%
08:00 +21°C° 0.1 mm 4 m/s 753 mmHg 70%
09:00 +23°C° 0.1 mm 4 m/s 752 mmHg 64%
10:00 +26°C° 0.1 mm 4 m/s 752 mmHg 58%
11:00 +26°C° 0.1 mm 4 m/s 752 mmHg 56%
12:00 +27°C° 0.1 mm 4 m/s 751 mmHg 54%
13:00 +28°C° 0.1 mm 4 m/s 751 mmHg 52%
14:00 +28°C° 0.1 mm 4 m/s 750 mmHg 53%
15:00 +28°C° 0.1 mm 4 m/s 750 mmHg 54%
16:00 +28°C° 0.1 mm 4 m/s 750 mmHg 55%
17:00 +27°C° 0.2 mm 3 m/s 749 mmHg 61%
18:00 +26°C° 0.2 mm 3 m/s 749 mmHg 68%
19:00 +25°C° 0.2 mm 3 m/s 749 mmHg 74%
20:00 +24°C° 0.1 mm 3 m/s 749 mmHg 76%
21:00 +22°C° 0.1 mm 3 m/s 749 mmHg 78%
22:00 +21°C° 0.1 mm 3 m/s 749 mmHg 80%
23:00 +21°C° 0.1 mm 3 m/s 749 mmHg 82%
Arată mai mult